Language selection

My Weather Profile Weather Topics  | 

Northwest Labrador Sea: Past 24 Hour Conditions

 

Cartwright Airport

04:00 PM ADT 23 July 2021
Disclaimer

This table is a summary of hourly weather conditions for the past 24 hours.
Please note that these observations might not always be representative of weather conditions over their associated marine area.

Date / Time
(ADT)
Wind(knots) Conditions Visibility(km) Pressure(kPa) Air tempC) Relative humidity(%) Dew pointC) Humidex
23 July 2021
16:00 NNE 11 gust 16 Mostly Cloudy 16 101.8 12 70 7 *
15:00 NNE 11 gust 16 Mostly Cloudy 16 101.8 12 72 7 *
14:00 NE 9 gust 16 Mostly Cloudy 16 101.8 14 64 7 *
13:00 N 7 Cloudy 16 101.8 11 86 9 *
12:00 N 7 Cloudy 16 101.8 10 93 9 *
11:00 N 9 Mist 1 101.8 9 97 9 *
10:00 NNE 8 Cloudy 16 101.7 10 95 9 *
9:00 N 7 Cloudy 16 101.7 10 93 9 *
8:00 N 9 gust 15 Cloudy 16 101.6 11 94 10 *
7:00 N 9 Cloudy 16 101.5 11 96 10 *
6:00 NNE 4 Cloudy 16 101.5 10 98 10 *
5:00 NNE 5 Partly Cloudy 16 101.4 10 99 10 *
4:00 NE 4 Clear 16 101.4 10 99 10 *
3:00 E 4 Clear 16 101.4 11 98 10 *
2:00 E 5 Clear 16 101.4 11 96 10 *
1:00 ENE 5 Clear 16 101.4 11 90 10 *
0:00 ENE 3 Clear 16 101.4 11 93 10 *
22 July 2021
23:00 N 2 Clear 16 101.3 12 90 10 *
22:00 NE 2 Clear 16 101.3 13 83 10 *
21:00 calm Clear 16 101.3 16 71 11 *
20:00 calm Sunny 16 101.3 17 62 10 *
19:00 N 2 Sunny 16 101.3 19 60 11 *
18:00 NE 3 Sunny 16 101.2 21 51 10 22
17:00 N 4 Mainly Sunny 16 101.2 20 51 10 *
16:00 W 6 Sunny 16 101.2 22 45 10 23

Zoom-in to make a selection

Map of Atlantic - Labrador marine weather areas Kangiqsualujjuaq Airport Cape Kakkiviak Cape Kiglapait Cartwright Airport CFB Goose Bay Hopedale Mary's Harbour Nain Airport Makkovik Airport Saglek Tukialik Bay
Legend:
buoy Buoy
land station Land Station

Atlantic - Labrador Area

Another Region

What we are doing

Date modified: